カタログに戻る

VINASAT 2

運用中通信GEO
NORAD 38332·PAYLOAD·🇻🇳 Vietnam

打ち上げ May 15, 2012 から Guiana Space Centre

Loading…

TLE

最新Source: Space-Track

元期: Sep 14, 2026, 14:25 UTC

1 38332U 12023B   26257.60127446 -.00000336  00000-0  00000-0 0  9992
2 38332   0.0445 328.8262 0002067 194.9546 178.1104  1.00272345 47555

AllMySatでVINASAT 2をリアルタイム追跡

Download on the App Store